STARLINK-34758, 64945

Orbit data source: Space-Track

STARLINK-34758, 64945 is a payload satellite owned by SpaceX/Seattle (US) in SSO that was launched on Sat, 26 Jul 2025 UTC via an FALCON 9 launch vehicle from the Air Force Western Test Range (AFWTR). Payload-class satellites include a variety of spacecraft equipped with specific instruments for various scientific and technological missions. These include communications satellites like Starlink; space stations such as the ISS; scientific satellites like the Hubble; Earth observation satellites from companies like Planet Labs, Umbra, and HawkEye 360; GPS; miniature CubeSats for education and research; and military/defense satellites.

Loading next visibility...
Identifier
64945, 2025-158P
Orbit
SSO
Country
Flag of USUS
Related business
Manufacturer
SpaceX/Seattle
Mission
Operational Commercial Communications
Bus & Motor
STARLINK V2MO, Unknown motor
Mass
575 kg wet, ~530 kg dry
Launch date (UTC)
2025-07-26 (11 months ago)
Launch vehicle
FALCON 9
Launch site
Air Force Western Test Range (AFWTR)
Object type
Payload
Rocket body
Debris
Shape & HBR
Box + 2 Pan, 17.7 m
Radar Cross Section
36.964 m², Large (>1 m²)

Expand to show TLE details & history
Last TLE update: 12 hours ago

TLE from 12 hours ago
0 STARLINK-34758
1 64945U 25158P   26171.34919049  .00003106  00000-0  21905-3 0  9995
2 64945  97.3443  34.1873 0002634  77.1545 282.9977 15.05660024 50806
Epoch: 2026-06-20T08:22Z
TLE epoch observation values (Epoch: 2026-06-20T08:22:50.058Z)
Latitude
0.00002°
Longitude
-0.08637°
Altitude
552.143 km
Speed
7.586 km/s
True Right ascension
02h 16m 44s
True Declination
0° 00' 00"
Sunlit
Object was in daylight at epoch
Visualization orbit readout
Latitude
Unknown
Longitude
Unknown
Altitude
Unknown
Speed
Unknown
Apparent Right ascension
Unknown
Apparent Declination
Unknown
Sunlit
N/A
Visualization observer readout
Local Sidereal Time
07:13:13
Azimuth
Unknown
Elevation
Unknown
Doppler factor
Unknown
Orbital elements
Apogee altitude
548.287 km
Perigee altitude
544.639 km
Semi-major axis
6,924.6 km
Eccentricity
0.00026
Inclination
97.3443°
RAAN
34.1873°
Arg. of periapsis
77.1545°
True anomaly
282.96829°
Mean anomaly
282.9977°
Eccentric anomaly
282.98299°
Mean motion
3.76661 °/min
Orbital period
95.58 mins
BSTAR
0.00021905
Loading maneuver chart data...
Computing Atmospheric mass density...
Loading historical data...
Loading historical data...
Loading historical data...
Loading historical data...
Loading historical data...
Loading historical data...
Loading historical data...

Documentation

Showing up to 5 results
|